• In Hungary
  • List of Countries
  • For 7 days
  • Water Temperature
  • Satellite Maps
  • Weather Map
  • News
  • Weather Widgets
  • user-avatar
    Login

    Hourly Weather Pucón

    Today, 20 August, Monday

    Time Temperature Precipitation Wind Pressure Humidity
    00:00 +3°C° 0 mm 2 mps 738 mmHg 67%
    01:00 +3°C° 0 mm 2 mps 738 mmHg 67%
    02:00 +3°C° 0 mm 2 mps 737 mmHg 67%
    03:00 +2°C° 0 mm 2 mps 737 mmHg 67%
    04:00 +2°C° 0 mm 2 mps 737 mmHg 67%
    05:00 +2°C° 0 mm 2 mps 737 mmHg 68%
    06:00 +2°C° 0 mm 2 mps 736 mmHg 68%
    07:00 +2°C° 0 mm 2 mps 736 mmHg 68%
    08:00 +5°C° 0 mm 2 mps 736 mmHg 64%
    09:00 +8°C° 0 mm 2 mps 736 mmHg 59%
    10:00 +12°C° 0 mm 1 mps 736 mmHg 55%
    11:00 +14°C° 0 mm 1 mps 736 mmHg 53%
    12:00 +16°C° 0 mm 1 mps 735 mmHg 52%
    13:00 +19°C° 0 mm 1 mps 735 mmHg 50%
    14:00 +16°C° 0 mm 0 mps 735 mmHg 56%
    15:00 +15°C° 0 mm 0 mps 734 mmHg 62%
    16:00 +14°C° 0 mm 0 mps 734 mmHg 68%
    17:00 +12°C° 0 mm 0 mps 735 mmHg 75%
    18:00 +10°C° 0 mm 1 mps 735 mmHg 81%
    19:00 +7°C° 0 mm 1 mps 735 mmHg 88%
    20:00 +7°C° 0 mm 1 mps 735 mmHg 89%
    21:00 +7°C° 0 mm 1 mps 735 mmHg 89%
    22:00 +6°C° 0 mm 1 mps 735 mmHg 90%
    23:00 +6°C° 0 mm 1 mps 735 mmHg 88%

    Tomorrow, 21 August, Tuesday

    Time Temperature Precipitation Wind Pressure Humidity
    00:00 +6°C° 0 mm 1 mps 735 mmHg 87%
    01:00 +6°C° 0 mm 1 mps 735 mmHg 85%
    02:00 +5°C° 0 mm 1 mps 735 mmHg 82%
    03:00 +5°C° 0 mm 1 mps 735 mmHg 79%
    04:00 +5°C° 0 mm 1 mps 734 mmHg 76%
    05:00 +5°C° 0 mm 1 mps 734 mmHg 73%
    06:00 +5°C° 0 mm 1 mps 734 mmHg 71%
    07:00 +5°C° 0 mm 1 mps 735 mmHg 68%
    08:00 +9°C° 0 mm 1 mps 735 mmHg 61%
    09:00 +12°C° 0 mm 1 mps 734 mmHg 54%
    10:00 +15°C° 0 mm 1 mps 734 mmHg 47%
    11:00 +16°C° 0 mm 1 mps 734 mmHg 46%
    12:00 +18°C° 0 mm 1 mps 734 mmHg 46%
    13:00 +19°C° 0 mm 1 mps 733 mmHg 45%
    14:00 +18°C° 0 mm 1 mps 733 mmHg 52%
    15:00 +16°C° 0 mm 1 mps 732 mmHg 59%
    16:00 +16°C° 0 mm 1 mps 732 mmHg 65%
    17:00 +13°C° 0 mm 1 mps 732 mmHg 72%
    18:00 +11°C° 0 mm 1 mps 732 mmHg 79%
    19:00 +8°C° 0 mm 1 mps 732 mmHg 85%
    20:00 +8°C° 0 mm 1 mps 732 mmHg 84%
    21:00 +7°C° 0 mm 1 mps 732 mmHg 82%
    22:00 +7°C° 0 mm 1 mps 732 mmHg 81%
    23:00 +7°C° 0 mm 1 mps 731 mmHg 78%

    Day after tomorrow, 22 August, Wednesday

    Time Temperature Precipitation Wind Pressure Humidity
    00:00 +7°C° 0 mm 1 mps 731 mmHg 75%
    01:00 +7°C° 0 mm 1 mps 730 mmHg 72%
    02:00 +7°C° 0 mm 1 mps 729 mmHg 70%
    03:00 +7°C° 0 mm 1 mps 729 mmHg 68%
    04:00 +7°C° 0 mm 1 mps 728 mmHg 66%
    05:00 +7°C° 0 mm 1 mps 728 mmHg 66%
    06:00 +7°C° 0 mm 1 mps 727 mmHg 66%
    07:00 +7°C° 0 mm 1 mps 727 mmHg 65%
    08:00 +9°C° 0 mm 2 mps 726 mmHg 58%
    09:00 +11°C° 0 mm 3 mps 726 mmHg 50%
    10:00 +14°C° 0 mm 4 mps 725 mmHg 43%
    11:00 +13°C° 0.1 mm 4 mps 724 mmHg 46%
    12:00 +12°C° 0.1 mm 4 mps 724 mmHg 50%
    13:00 +12°C° 0.1 mm 5 mps 723 mmHg 54%
    14:00 +10°C° 3.5 mm 4 mps 723 mmHg 68%
    15:00 +8°C° 3.5 mm 4 mps 723 mmHg 82%
    16:00 +7°C° 3.5 mm 3 mps 723 mmHg 96%
    17:00 +7°C° 1.9 mm 3 mps 723 mmHg 97%
    18:00 +5°C° 1.9 mm 3 mps 724 mmHg 97%
    19:00 +5°C° 1.9 mm 3 mps 724 mmHg 97%
    20:00 +5°C° 1.9 mm 4 mps 725 mmHg 97%
    21:00 +5°C° 1.9 mm 4 mps 725 mmHg 97%
    22:00 +5°C° 1.9 mm 5 mps 726 mmHg 96%
    23:00 +5°C° 1.3 mm 4 mps 727 mmHg 97%

    23 August, Thursday

    Time Temperature Precipitation Wind Pressure Humidity
    00:00 +4°C° 1.3 mm 4 mps 727 mmHg 97%
    01:00 +4°C° 1.3 mm 4 mps 728 mmHg 97%
    02:00 +3°C° 0.8 mm 3 mps 728 mmHg 97%
    03:00 +3°C° 0.8 mm 3 mps 728 mmHg 97%
    04:00 +4°C° 0.8 mm 2 mps 729 mmHg 98%
    05:00 +4°C° 2 mm 2 mps 729 mmHg 98%
    06:00 +3°C° 2 mm 3 mps 730 mmHg 98%
    07:00 +3°C° 2 mm 3 mps 730 mmHg 98%
    08:00 +3°C° 1.5 mm 3 mps 730 mmHg 98%
    09:00 +5°C° 1.5 mm 2 mps 731 mmHg 98%
    10:00 +5°C° 1.5 mm 2 mps 731 mmHg 97%
    11:00 +5°C° 1.3 mm 2 mps 732 mmHg 97%
    12:00 +5°C° 1.3 mm 2 mps 733 mmHg 96%
    13:00 +6°C° 1.3 mm 2 mps 733 mmHg 96%
    14:00 +5°C° 0.5 mm 2 mps 734 mmHg 96%
    15:00 +5°C° 0.5 mm 2 mps 735 mmHg 96%
    16:00 +5°C° 0.5 mm 2 mps 736 mmHg 95%
    17:00 +4°C° 0.2 mm 2 mps 737 mmHg 96%
    18:00 +3°C° 0.2 mm 2 mps 739 mmHg 97%
    19:00 +4°C° 0.2 mm 1 mps 740 mmHg 97%
    20:00 +3°C° 0.1 mm 1 mps 741 mmHg 98%
    21:00 +3°C° 0.1 mm 1 mps 742 mmHg 98%
    22:00 +2°C° 0.1 mm 1 mps 743 mmHg 98%
    23:00 +2°C° 0 mm 1 mps 743 mmHg 98%

    24 August, Friday

    Time Temperature Precipitation Wind Pressure Humidity
    00:00 +2°C° 0 mm 1 mps 744 mmHg 98%
    01:00 +1°C° 0 mm 1 mps 744 mmHg 98%
    02:00 +1°C° 0 mm 1 mps 744 mmHg 98%
    03:00 +1°C° 0 mm 1 mps 744 mmHg 98%
    04:00 0°C° 0 mm 1 mps 744 mmHg 98%
    05:00 0°C° 0 mm 1 mps 744 mmHg 98%
    06:00 0°C° 0 mm 1 mps 744 mmHg 98%
    07:00 0°C° 0 mm 1 mps 744 mmHg 98%
    08:00 +2°C° 0 mm 1 mps 744 mmHg 94%
    09:00 +3°C° 0 mm 0 mps 744 mmHg 90%
    10:00 +6°C° 0 mm 0 mps 744 mmHg 86%
    11:00 +7°C° 0 mm 0 mps 743 mmHg 84%
    12:00 +9°C° 0 mm 1 mps 742 mmHg 81%
    13:00 +9°C° 0 mm 1 mps 742 mmHg 79%
    14:00 +9°C° 0 mm 1 mps 741 mmHg 81%
    15:00 +9°C° 0 mm 1 mps 741 mmHg 83%
    16:00 +8°C° 0 mm 1 mps 741 mmHg 84%
    17:00 +7°C° 0 mm 1 mps 741 mmHg 88%
    18:00 +6°C° 0 mm 1 mps 741 mmHg 91%
    19:00 +4°C° 0 mm 1 mps 741 mmHg 95%
    20:00 +4°C° 0 mm 1 mps 741 mmHg 95%
    21:00 +4°C° 0 mm 1 mps 740 mmHg 96%
    22:00 +3°C° 0 mm 1 mps 740 mmHg 96%
    23:00 +3°C° 0 mm 1 mps 740 mmHg 96%

    25 August, Saturday

    Time Temperature Precipitation Wind Pressure Humidity
    00:00 +3°C° 0 mm 1 mps 739 mmHg 96%
    01:00 +2°C° 0 mm 1 mps 739 mmHg 95%
    02:00 +2°C° 0 mm 1 mps 738 mmHg 95%
    03:00 +2°C° 0 mm 1 mps 738 mmHg 94%
    04:00 +2°C° 0 mm 1 mps 737 mmHg 94%
    05:00 +2°C° 0 mm 1 mps 737 mmHg 93%
    06:00 +3°C° 0 mm 1 mps 737 mmHg 91%
    07:00 +3°C° 0 mm 1 mps 737 mmHg 90%
    08:00 +5°C° 0 mm 1 mps 736 mmHg 89%
    09:00 +7°C° 0 mm 1 mps 736 mmHg 87%
    10:00 +7°C° 0 mm 2 mps 735 mmHg 85%
    11:00 +7°C° 0.4 mm 2 mps 735 mmHg 88%
    12:00 +7°C° 0.4 mm 2 mps 734 mmHg 91%
    13:00 +7°C° 0.4 mm 2 mps 733 mmHg 94%
    14:00 +7°C° 1.1 mm 2 mps 733 mmHg 96%
    15:00 +7°C° 1.1 mm 2 mps 733 mmHg 97%
    16:00 +7°C° 1.1 mm 2 mps 733 mmHg 98%
    17:00 +8°C° 1 mm 2 mps 733 mmHg 99%
    18:00 +8°C° 1 mm 2 mps 734 mmHg 99%
    19:00 +8°C° 1 mm 2 mps 734 mmHg 99%
    20:00 +8°C° 0.7 mm 2 mps 734 mmHg 99%
    21:00 +8°C° 0.7 mm 2 mps 735 mmHg 99%
    22:00 +8°C° 0.7 mm 2 mps 735 mmHg 99%
    23:00 +8°C° 0.2 mm 2 mps 735 mmHg 99%
    Show more